Retour au catalogue

STARLINK-38149

ActifCommunicationsSSO
NORAD 100169·PAYLOAD·🇺🇸 United States

Lancé Jul 25, 2026 depuis Vandenberg Space Force Base

Loading…

Prochains Passages (prochaines 24 heures)

TLE

FraisSource: Space-Track

Époque: Sep 14, 2026, 22:37 UTC

1 A0169U 26171X   26257.94246139  .00014619  00000-0  45405-3 0  9995
2 A0169  97.2836 290.4553 0001041  70.7131 289.4224 15.33459890  9283

Suivez STARLINK-38149 en temps réel avec AllMySat

Download on the App Store